Simultaneous Nadir Overpasses (SNOs) Predictions

Prediction of SNOs between AQUA and NOAA-19 Satellite Orbit:

Table of predicted SNOs for the next 14.0 days since TLE Epoch: 8/16/2014
Index Date (AQUA) Time (AQUA) Lat,Lon (AQUA) SZA (AQUA ) Date (NOAA-19) Time (NOAA-19) Lat,Lon (NOAA-19) SZA (NOAA-19 ) Distance(km) Time Diff (sec)
1 08/18/2014 00:11:41 77.92, 158.92 65.38 08/18/2014 00:10:42 77.93, 158.82 65.42 2.56 59
2 08/18/2014 01:00:51 -77.21, -30.46 115.49 08/18/2014 01:01:29 -77.20, -30.35 115.52 3.04 38
3 08/20/2014 05:45:15 -77.56,-102.93 114.36 08/20/2014 05:45:25 -77.56,-102.98 114.36 1.31 10
4 08/22/2014 10:29:34 -77.68,-174.53 113.49 08/22/2014 10:29:15 -77.68,-174.49 113.48 0.87 19
5 08/22/2014 11:18:51 77.22, -5.00 65.96 08/22/2014 11:20:03 77.22, -5.03 65.94 0.75 72
6 08/24/2014 15:13:56 -77.95, 113.23 112.42 08/24/2014 15:13:09 -77.96, 113.11 112.38 3.08 47
7 08/24/2014 16:03:11 77.40, -76.81 66.92 08/24/2014 16:03:55 77.41, -76.84 66.92 0.98 44
8 08/26/2014 19:59:30 -80.83, 21.34 107.30 08/26/2014 19:58:16 -80.46, 20.37 107.44 44.81 74
9 08/26/2014 20:47:31 77.60,-148.67 67.91 08/26/2014 20:47:47 77.60,-148.70 67.91 0.80 16




NCC Satellite Simultaneous Nadir Overpasses (SNOs) Prediction Service
